Location: Newark
(13.8625°N, 100.5144°E)
Time: 11:33:04
(UTC+00:00)

LightSail 2 - Visible Passes

Search period start: 07 April 2020 00:00
Search period end: 17 April 2020 00:00
Orbit: 694 x 724 km, 24.0° (Epoch: 06 April)

Date Brightness Start Highest point End Pass type
(mag) Time Alt. Az. Time Alt. Az. Time Alt. Az.
07 Apr 8.0 20:19:37 13° ENE 20:19:37 13° ENE 20:20:13 10° ENE visible
07 Apr 6.5 21:58:30 18° NW 22:01:07 28° N 22:05:25 10° NE visible
08 Apr 6.6 21:02:47 28° NNE 21:02:47 28° NNE 21:06:10 10° NE visible
08 Apr 6.8 22:43:36 10° NW 22:47:44 25° N 22:51:52 10° ENE visible
09 Apr 6.7 21:45:57 18° NW 21:48:15 25° N 21:52:24 10° NE visible
10 Apr 7.0 20:50:14 23° NNE 20:50:14 23° NNE 20:53:01 10° NE visible
10 Apr 6.7 22:30:34 10° NW 22:34:51 27° N 22:39:07 10° ENE visible
11 Apr 6.7 21:33:25 20° NNW 21:35:22 25° N 21:39:31 10° ENE visible
12 Apr 7.3 20:37:45 20° NNE 20:37:45 20° NNE 20:39:59 10° NE visible
12 Apr 6.5 22:17:21 10° NW 22:21:53 33° N 22:26:24 10° ENE visible
13 Apr 6.6 21:21:00 25° NNW 21:22:25 28° N 21:26:46 10° ENE visible
14 Apr 7.6 20:25:25 18° NE 20:25:25 18° NE 20:27:08 10° ENE visible
14 Apr 6.0 22:04:18 11° NW 22:08:49 44° NNE 22:13:38 10° E visible
15 Apr 6.2 21:08:47 34° N 21:09:24 35° NNE 21:14:01 10° ENE visible
16 Apr 6.8 13:02:51 10° SSW 13:05:17 20° S 13:05:17 20° S visible
16 Apr 7.9 20:13:21 15° ENE 20:13:21 15° ENE 20:14:21 10° ENE visible
16 Apr 5.4 21:52:15 20° WNW 21:55:40 65° NNE 22:00:40 10° E visible
